Starlink 32092

operational
NORAD ID: 59700 Int'l Des: 2024-086 Owner: SPXS Country: US Constellation: starlink
LEOCIRCULAR

Über Starlink 32092

Beschreibung wird geladen...

Live-Position

3D-Globus wird geladen...

Nächste Überflüge

Höhenverlauf

Altitude vs Time

uPlot chart will show altitude changes over time

Zweizeiliger Elementsatz

1 59700U 24086U 25257.49084655 -.00000356 00000-0 -34259-5 0 9997
2 59700 43.0020 335.0710 0001231 258.7895 101.2818 15.27570261 77160
Epoch: 14. Sept. 2025 • Age: 19 hours

Aktueller Status

Höhe 490.3 km
Geschwindigkeit 7.62 km/s
Subsatellitenpunkt -29.38°S, 156.88°W
Startdatum 8. Mai 2024
Alter 1.3 years
Typ internet

Technische Details

Klassifizierung Payload
Masse 730.00 kg
Trockenmasse 700.00 kg
Gesamtmasse 730.00 kg
Länge 0.30 m
Durchmesser 4.10 m
Spannweite 29.00 m
Form Box + pan
Hersteller SPXS
Bus-Typ Starlink V2M
Phasenstatus In Orbit
Besitzer/Staat SPXS/US

Große Konstellationen

Loading constellations...